Weather History for Gwinner, ND

Change the Weather History Date:

Friday, November 9, 2012

  Actual Average (KP67) Record (KP67)
Temperature  
Mean Temperature 36 °F -  
Max Temperature 39 °F 30 °F 32 °F (1997)
Min Temperature 32 °F 17 °F 18 °F (1997)
Degree Days  
Heating Degree Days 30    
Moisture  
Dew Point 33 °F    
Average Humidity 94    
Maximum Humidity 100    
Minimum Humidity 87    
Precipitation  
Precipitation 0.00 in - - ()
Sea Level Pressure  
Sea Level Pressure 30.01 in    
Wind  
Wind Speed 18 mph (NE)    
Max Wind Speed 23 mph    
Max Gust Speed 30 mph    
Visibility 10 miles    
Events      
Averages and records for this station are not official NWS values.
T = Trace of Precipitation, MM = Missing Value Source: NWS Daily Summary

Daily Weather History Graph

Daily Weather History Graph

Search for Another Location

Airport:

Trip Planner

Search our weather history database for the weather conditions in past years. The results will help you decide how hot, cold, wet, or windy it might be!

Date:

Astronomy

Nov. 09, 2012 Rise Set
Actual Time 7:23 AM CST 5:04 PM CST
Civil Twilight 6:51 AM CST 5:36 PM CST
Nautical Twilight 6:15 AM CST 6:12 PM CST
Astronomical Twilight 5:40 AM CST 6:47 PM CST
Moon 2:08 AM CST (11/9) 2:31 PM CST (11/9)
Length of Visible Light 10h 44m
Length of Day
9h 40m
Waning Crescent, 23% of the Moon is Illuminated
Nov 9
Waning Crescent
Nov 13
New
Nov 20
First Quarter
Nov 28
Full
Dec 6
Last Quarter

Hourly Weather History & Observations

Time (CST) Temp. Windchill Dew Point Humidity Pressure Visibility Wind Dir Wind Speed Gust Speed Precip Events Conditions
12:15 AM 32.0 °F 19.2 °F 32.0 °F 100% 30.11 in 10.0 mi NNE 23.0 mph 27.6 mph 0.00 in   Overcast
12:35 AM 32.0 °F 21.2 °F 32.0 °F 100% 30.12 in 10.0 mi NNE 16.1 mph 25.3 mph 0.00 in   Overcast
12:55 AM 32.0 °F 21.2 °F 32.0 °F 100% 30.11 in 10.0 mi NNE 16.1 mph 27.6 mph 0.00 in   Overcast
1:15 AM 32.0 °F 19.5 °F 32.0 °F 100% 30.11 in 10.0 mi NNE 21.9 mph 26.5 mph 0.00 in   Overcast
1:35 AM 32.0 °F 19.5 °F 32.0 °F 100% 30.11 in 10.0 mi NNE 21.9 mph - 0.00 in   Overcast
1:55 AM 32.0 °F 19.2 °F 32.0 °F 100% 30.11 in 10.0 mi NNE 23.0 mph 29.9 mph 0.00 in   Overcast
2:15 AM 32.0 °F 19.5 °F 32.0 °F 100% 30.11 in 10.0 mi NNE 21.9 mph 27.6 mph 0.00 in   Overcast
2:35 AM 32.0 °F 19.5 °F 32.0 °F 100% 30.11 in 8.0 mi NNE 21.9 mph - 0.00 in   Overcast
2:55 AM 32.0 °F 20.1 °F 32.0 °F 100% 30.12 in 8.0 mi NNE 19.6 mph 26.5 mph 0.00 in   Overcast
3:15 AM 32.0 °F 19.5 °F 32.0 °F 100% 30.10 in 5.0 mi NNE 21.9 mph - 0.00 in   Overcast
3:35 AM 32.0 °F 19.5 °F 32.0 °F 100% 30.10 in 7.0 mi NNE 21.9 mph - 0.00 in   Overcast
3:55 AM 32.0 °F 19.2 °F 32.0 °F 100% 30.10 in 10.0 mi NNE 23.0 mph 26.5 mph 0.00 in   Overcast
4:15 AM 32.0 °F 19.8 °F 32.0 °F 100% 30.10 in 10.0 mi NNE 20.7 mph - 0.00 in   Overcast
4:35 AM 32.0 °F 19.8 °F 32.0 °F 100% 30.10 in 10.0 mi NNE 20.7 mph 26.5 mph 0.00 in   Overcast
4:55 AM 32.0 °F 19.8 °F 32.0 °F 100% 30.10 in 10.0 mi NNE 20.7 mph - 0.00 in   Overcast
5:15 AM 32.0 °F 21.2 °F 32.0 °F 100% 30.10 in 10.0 mi NNE 16.1 mph 24.2 mph 0.00 in   Overcast
5:35 AM 32.0 °F 20.1 °F 32.0 °F 100% 30.09 in 10.0 mi NNE 19.6 mph 25.3 mph 0.00 in   Overcast
5:55 AM 32.0 °F 20.1 °F 32.0 °F 100% 30.09 in 10.0 mi NNE 19.6 mph - 0.00 in   Overcast
6:15 AM 32.0 °F 21.2 °F 32.0 °F 100% 30.09 in 10.0 mi NNE 16.1 mph - 0.00 in   Overcast
6:35 AM 32.0 °F 20.5 °F 32.0 °F 100% 30.10 in 10.0 mi NNE 18.4 mph - 0.00 in   Overcast
6:55 AM 32.0 °F 21.6 °F 32.0 °F 100% 30.09 in 10.0 mi NNE 15.0 mph - 0.00 in   Overcast
7:15 AM 32.0 °F 21.2 °F 32.0 °F 100% 30.08 in 10.0 mi NNE 16.1 mph 19.6 mph 0.00 in   Overcast
7:35 AM 32.0 °F 22.1 °F 32.0 °F 100% 30.09 in 10.0 mi NE 13.8 mph - 0.00 in   Overcast
7:55 AM 32.0 °F 21.6 °F 32.0 °F 100% 30.09 in 10.0 mi NE 15.0 mph - 0.00 in   Overcast
8:15 AM 32.0 °F 21.2 °F 32.0 °F 100% 30.09 in 10.0 mi NE 16.1 mph - 0.00 in   Overcast
8:35 AM 32.0 °F 21.6 °F 32.0 °F 100% 30.09 in 10.0 mi NNE 15.0 mph - 0.00 in   Overcast
8:55 AM 32.0 °F 21.6 °F 32.0 °F 100% 30.08 in 10.0 mi NNE 15.0 mph - 0.00 in   Overcast
9:15 AM 32.0 °F 22.1 °F 32.0 °F 100% 30.08 in 10.0 mi NNE 13.8 mph - 0.00 in   Overcast
9:35 AM 32.0 °F 21.6 °F 32.0 °F 100% 30.07 in 10.0 mi NE 15.0 mph - 0.00 in   Overcast
9:55 AM 32.0 °F 21.6 °F 32.0 °F 100% 30.06 in 10.0 mi NE 15.0 mph - 0.00 in   Overcast
10:15 AM 33.8 °F 24.3 °F 32.0 °F 93% 30.05 in 10.0 mi NE 13.8 mph - 0.00 in   Overcast
10:35 AM 33.8 °F 24.3 °F 32.0 °F 93% 30.06 in 10.0 mi NNE 13.8 mph - 0.00 in   Overcast
10:55 AM 33.8 °F 23.5 °F 32.0 °F 93% 30.05 in 10.0 mi NNE 16.1 mph - 0.00 in   Overcast
11:15 AM 33.8 °F 23.5 °F 32.0 °F 93% 30.04 in 10.0 mi NE 16.1 mph - 0.00 in   Overcast
11:35 AM 35.6 °F 26.2 °F 32.0 °F 87% 30.03 in 10.0 mi NE 15.0 mph - 0.00 in   Overcast
11:55 AM 35.6 °F 25.9 °F 32.0 °F 87% 30.02 in 10.0 mi NE 16.1 mph - 0.00 in   Overcast
12:15 PM 35.6 °F 25.5 °F 32.0 °F 87% 30.01 in 10.0 mi NE 17.3 mph - 0.00 in   Overcast
12:55 PM 35.6 °F 25.9 °F 32.0 °F 87% 30.00 in 10.0 mi NE 16.1 mph - 0.00 in   Overcast
1:15 PM 35.6 °F 26.2 °F 32.0 °F 87% 30.00 in 10.0 mi NE 15.0 mph - 0.00 in   Overcast
1:35 PM 35.6 °F 25.5 °F 33.8 °F 93% 30.00 in 10.0 mi NE 17.3 mph - 0.00 in   Overcast
1:55 PM 35.6 °F 25.5 °F 33.8 °F 93% 29.99 in 10.0 mi NE 17.3 mph 21.9 mph 0.00 in   Overcast
2:15 PM 37.4 °F 27.5 °F 33.8 °F 87% 29.98 in 10.0 mi NE 18.4 mph - 0.00 in   Overcast
2:35 PM 37.4 °F 27.5 °F 33.8 °F 87% 29.96 in 10.0 mi NE 18.4 mph - 0.00 in   Overcast
2:55 PM 37.4 °F 27.2 °F 33.8 °F 87% 29.96 in 10.0 mi NE 19.6 mph - 0.00 in   Overcast
3:15 PM 37.4 °F 28.2 °F 33.8 °F 87% 29.95 in 10.0 mi NE 16.1 mph - 0.00 in   Overcast
3:35 PM 37.4 °F 28.5 °F 33.8 °F 87% 29.95 in 10.0 mi NE 15.0 mph - 0.00 in   Overcast
3:55 PM 37.4 °F 27.5 °F 33.8 °F 87% 29.94 in 10.0 mi NE 18.4 mph - 0.00 in   Overcast
4:15 PM 37.4 °F 27.5 °F 33.8 °F 87% 29.94 in 10.0 mi NE 18.4 mph 24.2 mph 0.00 in   Overcast
4:35 PM 37.4 °F 27.8 °F 33.8 °F 87% 29.94 in 10.0 mi NE 17.3 mph - 0.00 in   Overcast
4:55 PM 37.4 °F 27.8 °F 33.8 °F 87% 29.94 in 10.0 mi NE 17.3 mph - 0.00 in   Overcast
5:15 PM 37.4 °F 28.2 °F 33.8 °F 87% 29.94 in 10.0 mi NE 16.1 mph - 0.00 in   Overcast
5:35 PM 37.4 °F 27.8 °F 33.8 °F 87% 29.93 in 10.0 mi NE 17.3 mph - 0.00 in   Overcast
5:55 PM 37.4 °F 28.5 °F 33.8 °F 87% 29.93 in 10.0 mi NE 15.0 mph - 0.00 in   Overcast
6:15 PM 37.4 °F 28.2 °F 33.8 °F 87% 29.93 in 10.0 mi NE 16.1 mph - 0.00 in   Overcast
6:35 PM 37.4 °F 28.2 °F 33.8 °F 87% 29.93 in 10.0 mi ENE 16.1 mph - 0.00 in   Overcast
6:55 PM 37.4 °F 28.2 °F 33.8 °F 87% 29.93 in 10.0 mi ENE 16.1 mph - 0.00 in   Overcast
7:15 PM 37.4 °F 28.2 °F 33.8 °F 87% 29.93 in 10.0 mi NE 16.1 mph - 0.00 in   Overcast
7:55 PM 37.4 °F 28.5 °F 33.8 °F 87% 29.92 in 10.0 mi ENE 15.0 mph - 0.00 in   Overcast
8:15 PM 37.4 °F 27.8 °F 33.8 °F 87% 29.90 in 10.0 mi ENE 17.3 mph - 0.00 in   Overcast
8:35 PM 37.4 °F 27.8 °F 35.6 °F 93% 29.90 in 10.0 mi ENE 17.3 mph 21.9 mph 0.00 in   Overcast
8:55 PM 37.4 °F 28.9 °F 35.6 °F 93% 29.90 in 10.0 mi ENE 13.8 mph - 0.00 in   Overcast
9:15 PM 37.4 °F 28.9 °F 35.6 °F 93% 29.90 in 10.0 mi ENE 13.8 mph - 0.00 in   Overcast
9:35 PM 37.4 °F 29.8 °F 35.6 °F 93% 29.90 in 10.0 mi ENE 11.5 mph 19.6 mph 0.00 in   Overcast
9:55 PM 39.2 °F 32.0 °F 35.6 °F 87% 29.90 in 10.0 mi ENE 11.5 mph - 0.00 in   Overcast
10:15 PM 39.2 °F 31.6 °F 37.4 °F 93% 29.88 in 10.0 mi ENE 12.7 mph - 0.00 in   Overcast
10:35 PM 39.2 °F 31.2 °F 37.4 °F 93% 29.87 in 10.0 mi ENE 13.8 mph - 0.00 in   Overcast
10:55 PM 39.2 °F 31.2 °F 37.4 °F 93% 29.86 in 3.0 mi ENE 13.8 mph - 0.00 in   Overcast
11:15 PM 37.4 °F 29.3 °F 37.4 °F 100% 29.85 in 5.0 mi ENE 12.7 mph - 0.00 in   Overcast
11:35 PM 39.2 °F 30.8 °F 39.2 °F 100% 29.84 in 5.0 mi ENE 15.0 mph - 0.00 in   Overcast
11:55 PM 39.2 °F 31.2 °F 39.2 °F 100% 29.83 in 2.5 mi East 13.8 mph - 0.00 in   Overcast